Storm Lake, IA

2:37 AM CDT on May 25, 2017 (GMT -0500)
Storm Lake Municipal

Weather History for KSLB - May, 2014

Change the Weather History Date:

Friday, May 2, 2014

  Actual Average Record
Temperature  
Mean Temperature 50 °F -  
Max Temperature 64 °F 66 °F 76 °F (2012)
Min Temperature 35 °F 45 °F 32 °F (2011)
Degree Days  
Heating Degree Days 16    
Moisture  
Dew Point 37 °F    
Average Humidity 66    
Maximum Humidity 100    
Minimum Humidity 30    
Precipitation  
Precipitation 0.00 in - - ()
Sea Level Pressure  
Sea Level Pressure 29.80 in    
Wind  
Wind Speed 13 mph (WNW)    
Max Wind Speed 25 mph    
Max Gust Speed 33 mph    
Visibility 10 miles    
Events      
Averages and records for this station are not official NWS values.
T = Trace of Precipitation, MM = Missing Value Source: NWS Daily Summary

Daily Weather History Graph

Daily Weather History Graph

Search for Another Location

Airport or City:

Trip Planner

Search our weather history database for the weather conditions in past years. The results will help you decide how hot, cold, wet, or windy it might be!

Date:

Astronomy

May. 02, 2014 Rise Set
Actual Time 6:14 AM CDT 8:22 PM CDT
Civil Twilight 5:43 AM CDT 8:53 PM CDT
Nautical Twilight 5:05 AM CDT 9:31 PM CDT
Astronomical Twilight 4:23 AM CDT 10:13 PM CDT
Moon 8:51 AM CDT (5/2) 11:46 PM CDT (5/2)
Length of Visible Light 15h 09m
Length of Day
14h 08m
Waxing Crescent, 12% of the Moon is Illuminated
May 2
Waxing Crescent
May 6
First Quarter
May 14
Full
May 21
Last Quarter
May 28
New

Hourly Weather History & Observations

Time (CDT) Temp. Windchill Dew Point Humidity Pressure Visibility Wind Dir Wind Speed Gust Speed Precip Events Conditions
12:15 AM 41.0 °F 35.2 °F 41.0 °F 100% 29.93 in 10.0 mi West 9.2 mph - N/A   Overcast
12:35 AM 39.2 °F 32.5 °F 39.2 °F 100% 29.93 in 10.0 mi West 10.4 mph - N/A   Mostly Cloudy
12:55 AM 37.4 °F 29.8 °F 37.4 °F 100% 29.92 in 10.0 mi West 11.5 mph - N/A   Clear
1:15 AM 37.4 °F 30.3 °F 37.4 °F 100% 29.92 in 10.0 mi West 10.4 mph - N/A   Clear
1:35 AM 37.4 °F 29.8 °F 37.4 °F 100% 29.91 in 10.0 mi West 11.5 mph - N/A   Clear
1:55 AM 37.4 °F 30.3 °F 37.4 °F 100% 29.91 in 10.0 mi West 10.4 mph - N/A   Clear
2:15 AM 37.4 °F 30.3 °F 37.4 °F 100% 29.90 in 10.0 mi West 10.4 mph - N/A   Clear
2:35 AM 35.6 °F 28.0 °F 35.6 °F 100% 29.90 in 10.0 mi West 10.4 mph - N/A   Clear
2:55 AM 37.4 °F 30.3 °F 37.4 °F 100% 29.90 in - West 10.4 mph - N/A   Unknown
3:15 AM 35.6 °F 28.6 °F 35.6 °F 100% 29.89 in 10.0 mi West 9.2 mph - N/A   Clear
3:35 AM 35.6 °F 28.0 °F 35.6 °F 100% 29.88 in 10.0 mi West 10.4 mph - N/A   Clear
3:55 AM 37.4 °F 29.8 °F 35.6 °F 93% 29.88 in 10.0 mi West 11.5 mph - N/A   Clear
4:15 AM 37.4 °F 29.8 °F 35.6 °F 93% 29.88 in 10.0 mi West 11.5 mph - N/A   Clear
4:35 AM 37.4 °F 30.3 °F 35.6 °F 93% 29.88 in 10.0 mi West 10.4 mph - N/A   Clear
4:55 AM 35.6 °F 29.2 °F 35.6 °F 100% 29.87 in 10.0 mi WSW 8.1 mph - N/A   Clear
5:15 AM 35.6 °F 28.6 °F 35.6 °F 100% 29.86 in 10.0 mi WSW 9.2 mph - N/A   Clear
5:35 AM 37.4 °F 30.3 °F 35.6 °F 93% 29.86 in 10.0 mi West 10.4 mph - N/A   Clear
5:55 AM 37.4 °F 30.8 °F 35.6 °F 93% 29.86 in 10.0 mi West 9.2 mph - N/A   Clear
6:15 AM 35.6 °F 29.9 °F 33.8 °F 93% 29.85 in 10.0 mi WSW 6.9 mph - N/A   Clear
6:35 AM 35.6 °F 29.2 °F 35.6 °F 100% 29.85 in 10.0 mi West 8.1 mph - N/A   Clear
6:55 AM 37.4 °F 29.8 °F 35.6 °F 93% 29.85 in 10.0 mi West 11.5 mph - N/A   Clear
7:15 AM 37.4 °F 30.8 °F 35.6 °F 93% 29.84 in 10.0 mi WSW 9.2 mph - N/A   Clear
7:35 AM 39.2 °F 33.6 °F 37.4 °F 93% 29.85 in 10.0 mi WSW 8.1 mph - N/A   Clear
7:55 AM 41.0 °F 35.8 °F 39.2 °F 93% 29.84 in 10.0 mi WSW 8.1 mph - N/A   Partly Cloudy
8:15 AM 42.8 °F 38.0 °F 39.2 °F 87% 29.83 in 10.0 mi WSW 8.1 mph - N/A   Scattered Clouds
8:35 AM 44.6 °F 38.8 °F 39.2 °F 81% 29.82 in 10.0 mi WSW 11.5 mph - N/A   Clear
8:55 AM 46.4 °F 41.5 °F 39.2 °F 76% 29.81 in 10.0 mi WSW 10.4 mph - N/A   Clear
9:15 AM 48.2 °F - 41.0 °F 76% 29.80 in 10.0 mi WSW 15.0 mph - N/A   Clear
9:35 AM 51.8 °F - 41.0 °F 67% 29.80 in 10.0 mi WSW 16.1 mph - N/A   Clear
9:55 AM 53.6 °F - 41.0 °F 62% 29.80 in 10.0 mi WSW 18.4 mph - N/A   Partly Cloudy
10:15 AM 53.6 °F - 39.2 °F 58% 29.79 in 10.0 mi WSW 19.6 mph - N/A   Partly Cloudy
10:55 AM 55.4 °F - 41.0 °F 58% 29.77 in 10.0 mi WSW 19.6 mph - N/A   Clear
11:15 AM 57.2 °F - 41.0 °F 55% 29.76 in 10.0 mi SW 18.4 mph 25.3 mph N/A   Clear
11:35 AM 59.0 °F - 41.0 °F 51% 29.75 in - WSW 20.7 mph - N/A   Partly Cloudy
11:55 AM 59.0 °F - 39.2 °F 48% 29.75 in 10.0 mi WSW 20.7 mph 27.6 mph N/A   Scattered Clouds
12:15 PM 60.8 °F - 41.0 °F 48% 29.74 in 10.0 mi WSW 21.9 mph 28.8 mph N/A   Partly Cloudy
12:35 PM 62.6 °F - 42.8 °F 48% 29.74 in 10.0 mi WSW 20.7 mph - N/A   Clear
12:55 PM 62.6 °F - 41.0 °F 45% 29.73 in 10.0 mi West 23.0 mph 33.4 mph N/A   Mostly Cloudy
1:15 PM 62.6 °F - 41.0 °F 45% 29.73 in 10.0 mi West 24.2 mph 33.4 mph N/A   Overcast
1:35 PM 62.6 °F - 42.8 °F 48% 29.73 in 10.0 mi NW 20.7 mph 28.8 mph N/A   Mostly Cloudy
1:55 PM 62.6 °F - 42.8 °F 48% 29.72 in 10.0 mi West 25.3 mph - N/A   Partly Cloudy
2:15 PM 60.8 °F - 42.8 °F 52% 29.72 in 10.0 mi WNW 24.2 mph 31.1 mph N/A   Clear
2:35 PM 60.8 °F - 44.6 °F 55% 29.72 in 10.0 mi WNW 21.9 mph - N/A   Clear
2:55 PM 60.8 °F - 42.8 °F 52% 29.73 in 10.0 mi WNW 21.9 mph 27.6 mph N/A   Clear
3:15 PM 62.6 °F - 41.0 °F 45% 29.72 in 10.0 mi WNW 24.2 mph - N/A   Clear
3:35 PM 64.4 °F - 37.4 °F 37% 29.72 in 10.0 mi NW 23.0 mph 31.1 mph N/A   Clear
3:55 PM 64.4 °F - 35.6 °F 34% 29.72 in 10.0 mi NNW 25.3 mph 33.4 mph N/A   Clear
4:15 PM 62.6 °F - 39.2 °F 42% 29.72 in 10.0 mi NW 24.2 mph 32.2 mph N/A   Partly Cloudy
4:35 PM 62.6 °F - 35.6 °F 37% 29.73 in 10.0 mi NW 24.2 mph 33.4 mph N/A   Scattered Clouds
4:55 PM 62.6 °F - 35.6 °F 37% 29.73 in 10.0 mi NW 19.6 mph 27.6 mph N/A   Clear
5:15 PM 64.4 °F - 33.8 °F 32% 29.73 in 10.0 mi NW 19.6 mph 26.5 mph N/A   Clear
5:35 PM 64.4 °F - 33.8 °F 32% 29.73 in 10.0 mi NW 18.4 mph - N/A   Clear
5:55 PM 62.6 °F - 32.0 °F 32% 29.73 in 10.0 mi NNW 20.7 mph - N/A   Clear
6:15 PM 62.6 °F - 32.0 °F 32% 29.74 in 10.0 mi NW 21.9 mph 29.9 mph N/A   Clear
6:35 PM 62.6 °F - 30.2 °F 30% 29.75 in 10.0 mi NNW 23.0 mph 29.9 mph N/A   Clear
6:55 PM 60.8 °F - 32.0 °F 34% 29.75 in 10.0 mi NW 19.6 mph 26.5 mph N/A   Clear
7:15 PM 60.8 °F - 32.0 °F 34% 29.75 in 10.0 mi NW 19.6 mph 27.6 mph N/A   Clear
7:35 PM 60.8 °F - 32.0 °F 34% 29.76 in 10.0 mi NW 13.8 mph 19.6 mph N/A   Clear
7:55 PM 59.0 °F - 32.0 °F 36% 29.76 in 10.0 mi NW 17.3 mph 24.2 mph N/A   Clear
8:15 PM 55.4 °F - 33.8 °F 44% 29.77 in 10.0 mi NW 12.7 mph - N/A   Clear
8:35 PM 55.4 °F - 33.8 °F 44% 29.78 in 10.0 mi NW 11.5 mph - N/A   Clear
8:55 PM 55.4 °F - 33.8 °F 44% 29.78 in 10.0 mi NW 10.4 mph - N/A   Clear
9:15 PM 53.6 °F - 33.8 °F 47% 29.78 in 10.0 mi NW 9.2 mph - N/A   Clear
9:35 PM 51.8 °F - 33.8 °F 50% 29.79 in 10.0 mi NW 9.2 mph - N/A   Clear
9:55 PM 51.8 °F - 33.8 °F 50% 29.80 in 10.0 mi NW 9.2 mph - N/A   Clear
10:15 PM 51.8 °F - 33.8 °F 50% 29.81 in 10.0 mi NNW 8.1 mph - N/A   Clear
10:35 PM 48.2 °F - 35.6 °F 62% 29.81 in 10.0 mi NNW 8.1 mph - N/A   Clear
10:55 PM 48.2 °F - 35.6 °F 62% 29.81 in 10.0 mi NNW 5.8 mph - N/A   Clear
11:15 PM 50.0 °F - 35.6 °F 58% 29.82 in 10.0 mi NW 5.8 mph - N/A   Clear
11:35 PM 48.2 °F - 35.6 °F 62% 29.82 in 10.0 mi West 8.1 mph - N/A   Clear
11:55 PM 46.4 °F 42.4 °F 35.6 °F 66% 29.82 in 10.0 mi WNW 8.1 mph - N/A   Clear